This demonstration page uses our WeatherBlox Daily Observations layout. Learn more.

Left ArrowRight Arrow

39.51506, -84.39828

Hourly Observations for April 3, 2016

Temp ( °F °C ) Dew Point ( °F °C ) Humidity (%) Winds ( mph kmh ) Pressure ( in mb ) Visibility ( mi km ) Precip ( " mm )
8:55 am 08:55 undefined 34 1.2 25 -3.9 69 69 SW 8 13 30.18 1022 10 16 N/A
9:15 am 09:15 Sunny 34 1.2 23 -4.8 65 65 SW 9 15 30.18 1022 10 16 N/A
9:35 am 09:35 Sunny 37 2.6 22 -5.8 54 54 W 9 15 30.18 1022 10 16 N/A
9:55 am 09:55 Sunny 37 2.6 20 -6.9 50 50 NW 8 13 30.18 1022 10 16 N/A
10:15 am 10:15 Sunny 39 4 19 -7.2 44 44 WSW 12 19 30.18 1022 10 16 N/A
10:35 am 10:35 Sunny 39 4 17 -8.1 41 41 SSW 9 15 30.18 1022 10 16 N/A
10:55 am 10:55 Sunny 39 4 15 -9.4 37 37 SSW 12 19 30.18 1022 10 16 N/A
11:15 am 11:15 Partly Cloudy 40 4.7 15 -9.6 35 35 SSW 12 19 30.18 1022 10 16 N/A
11:35 am 11:35 Sunny 40 4.7 14 -10 34 34 SW 9 15 30.18 1022 10 16 N/A
11:55 am 11:55 Sunny 42 5.5 14 -10.1 32 32 WSW 12 19 30.15 1021 10 16 N/A
12:15 pm 12:15 Sunny 43 6.2 14 -10.1 30 30 WSW 9 15 30.12 1020 10 16 N/A
12:35 pm 12:35 Sunny 44 6.8 14 -10.1 29 29 SW 16 26 30.12 1020 10 16 N/A
12:55 pm 12:55 Sunny 47 8.4 15 -9.3 28 28 SW 14 22 30.12 1020 10 16 N/A
1:15 pm 13:15 Sunny 49 9.6 16 -8.7 27 27 SSW 12 19 30.09 1019 10 16 N/A
1:35 pm 13:35 Sunny 49 9.6 16 -9 26 26 SW 14 22 30.09 1019 10 16 N/A
1:55 pm 13:55 Sunny 49 9.6 17 -8.3 28 28 SSW 15 24 30.06 1018 10 16 N/A
2:15 pm 14:15 Sunny 51 10.4 18 -7.6 28 28 SW 15 24 30.06 1018 10 16 N/A
2:35 pm 14:35 Sunny 52 11 19 -7.5 27 27 SSW 12 19 30.03 1017 10 16 N/A
2:55 pm 14:55 Sunny 55 12.5 21 -6 27 27 SW 21 33 30.03 1017 10 16 N/A
3:15 pm 15:15 Sunny 55 12.5 21 -6 27 27 SSW 17 28 30.00 1016 10 16 N/A
3:35 pm 15:35 Sunny 57 13.8 22 -5.4 26 26 SSW 18 30 30.00 1016 10 16 N/A
3:55 pm 15:55 Sunny 57 13.8 22 -5.3 26 26 SW 15 24 29.97 1015 10 16 N/A
4:15 pm 16:15 Sunny 57 13.8 22 -5.3 26 26 SW 18 30 29.97 1015 10 16 N/A
4:35 pm 16:35 Sunny 59 14.9 23 -5.1 25 25 SW 17 28 29.91 1013 10 16 N/A
4:55 pm 16:55 Sunny 60 15.3 24 -4.4 26 26 SSW 18 30 29.91 1013 10 16 N/A
5:15 pm 17:15 Sunny 60 15.3 24 -4.5 25 25 SW 21 33 29.91 1013 10 16 N/A
5:35 pm 17:35 Sunny 60 15.3 24 -4.6 25 25 SW 20 31 29.88 1012 10 16 N/A
5:55 pm 17:55 Sunny 60 15.7 24 -4.2 25 25 SW 20 31 29.88 1012 10 16 N/A
6:15 pm 18:15 Sunny 60 15.5 24 -4.7 25 25 SW 21 33 29.88 1012 10 16 N/A
6:35 pm 18:35 Sunny 60 15.4 24 -4.4 25 25 SW 20 31 29.88 1012 10 16 N/A
6:55 pm 18:55 Sunny 60 15.3 24 -4.2 26 26 SW 18 30 29.85 1011 10 16 N/A
7:15 pm 19:15 Sunny 60 15.3 25 -3.8 27 27 SW 18 30 29.85 1011 10 16 N/A
7:35 pm 19:35 Sunny 60 15.3 26 -3.2 28 28 SW 17 28 29.85 1011 10 16 N/A
7:55 pm 19:55 Sunny 60 15.3 26 -3.2 28 28 SSW 18 30 29.85 1011 10 16 N/A
8:15 pm 20:15 Clear 58 14.4 26 -3.1 30 30 SSW 15 24 29.83 1010 10 16 N/A
8:35 pm 20:35 Clear 57 13.8 27 -2.8 32 32 SSW 16 26 29.83 1010 10 16 N/A
8:55 pm 20:55 Clear 57 13.8 27 -2.6 32 32 SSW 16 26 29.83 1010 10 16 N/A
9:15 pm 21:15 Clear 57 13.8 28 -2.1 33 33 SSW 15 24 29.83 1010 10 16 N/A
9:35 pm 21:35 Clear 57 13.8 28 -2 34 34 SSW 17 28 29.88 1012 10 16 N/A
9:55 pm 21:55 Clear 57 13.8 30 -1 36 36 SW 15 24 29.88 1012 10 16 N/A
10:15 pm 22:15 Clear 57 13.8 31 -0.4 38 38 SSW 14 22 29.88 1012 10 16 N/A
10:35 pm 22:35 Clear 57 13.8 31 -0.5 38 38 SW 18 30 29.88 1012 10 16 N/A
10:55 pm 22:55 Clear 57 13.8 31 -0.6 37 37 SW 18 30 29.83 1010 10 16 N/A
11:15 pm 23:15 Clear 57 13.8 31 -0.5 38 38 SW 17 28 29.83 1010 10 16 N/A
11:35 pm 23:35 Clear 57 13.8 31 -0.6 37 37 SW 20 31 29.83 1010 10 16 N/A
11:55 pm 23:55 Clear 57 13.8 32 undefined 39 39 SW 16 26 29.83 1010 10 16 N/A

Powered by AerisWeather